629  
SXUS55 KTWC 151715  
OSOTWC  
 
WEATHER ROUNDUP FOR SOUTHEAST ARIZONA  
NATIONAL WEATHER SERVICE TUCSON AZ  
1015 AM MST MON OCT 15 2018  
 
AZZ504>506-514-151815-  
LOCATION SKY/WX TMP DP RH WIND PRES REMARKS  
TUCSON SUNNY 65 54 67 CALM 30.03F  
DAVIS-MONTHAN MOSUNNY 65 58 78 NE3 30.01F  
CHILDRENS PARK N/A N/A N/A 79 NE1 PIMA CO DEQ  
ALVERNON/22ND N/A 62 N/A N/A W2 PIMA CO DEQ  
CHERRY/GLENN N/A N/A N/A N/A N/A PIMA CO DEQ  
TANGERINE N/A 67 N/A N/A NW2 PIMA CO DEQ  
CONTL RANCH N/A 64 55 73 S3 PIMA CO DEQ  
GRANT/1ST N/A 60 55 85 NE1 PIMA CO DEQ  
CRAYCROFT/22ND N/A 65 56 72 SW1 PIMA CO DEQ  
GOLFLINKS/KOLB N/A N/A N/A N/A N/A PIMA CO DEQ  
AJO/12TH N/A 59 57 92 E1 PIMA CO DEQ  
FAIRGROUNDS N/A 62 N/A N/A NE1 PIMA CO DEQ  
SAGUARO N/A 67 54 63 W3 *SABINO CYN  
SAN CARLOS N/A 62 39 43 NW3 *SAN CARLOS  
GREEN VALLEY N/A 64 55 73 SE2 PIMA CO DEQ  
HORSE CAMP CYN N/A 57 40 54 NE11G17 *ARAVAIPA CYN  
RINCON MTNS NOT AVBL  

 
 
AZZ509>511-151815-  
LOCATION SKY/WX TMP DP RH WIND PRES REMARKS  
SAFFORD LGT RAIN 56 52 86 SW8 30.07R FOG  
STRAY HORSE N/A 42 39 89 N3G10 *  
TRAIL CABIN N/A 50 46 85 SE4G11 *N OF GRANVILLE  
BLACK HILLS NOT AVBL  
DRY LAKE N/A 49 46 90 E3 *NATANES MTNS  
NOON CREEK N/A 50 48 93 E2G10 *PINALENO MTNS  
COLUMBINE N/A 38 38 100 S4 *PINALENO MTNS  
GUTHRIE N/A 44 44 100 S10G19 *SW OF GUTHRIE  

 
 
AZZ502-503-513-151815-  
LOCATION SKY/WX TMP DP RH WIND PRES REMARKS  
NOGALES SUNNY 65 50 58 CALM 30.04F  
SELLS N/A 68 54 62 NE7G11 *  
SASABE N/A 64 54 71 NE5 *ALTAR VLY  
HOPKINS N/A 56 43 63 SE7G13 *SANTA RITA MTNS  
CARR CYN N/A 57 48 73 CALM *W OF HEREFORD  

 
 
AZZ507-508-512-151815-  
LOCATION SKY/WX TMP DP RH WIND PRES REMARKS  
SIERRA VISTA PTSUNNY 59 49 69 CALM 30.09F  
DOUGLAS MOSUNNY 63 50 62 SE5 30.06F  
EMPIRE MTNS NOT AVBL  
MULESHOE RANCH N/A 59 51 76 NW5 *PRESERVE  
HEADQUARTERS NOT AVBL  

 
   
............................NOTES..........................
 
 
THIS IS AN AUTOMATED COLLECTIVE WITH MINIMAL QUALITY CONTROL.  
PIMA CO DEQ SITES HAVE NONSTANDARD WIND SENSOR HEIGHTS.  
PIMA CO DEQ SITES DO NOT REPORT WIND GUSTS.  
* INDICATES WIND SENSORS LOCATED AT 20 FEET INSTEAD OF 33 FEET.   
.............................KEY...........................
 
 
SKY/WX - SKY CONDITION/WEATHER  
TMP - TEMPERATURE IN FAHRENHEIT  
DP - DEWPOINT IN FAHRENHEIT  
RH - RELATIVE HUMIDITY IN PERCENT  
WIND - DIRECTION AND SPEED IN MILES PER HOUR (MPH)  
VRB - VARIABLE WIND DIRECTION  
PRES - MEAN SEA LEVEL PRESSURE IN INCHES OF MERCURY  
F - FALLING PRESSURE R - RISING PRESSURE  
S - STEADY PRESSURE  
VSB - VISIBILITY IN MILES  
HX - HEAT INDEX IN FAHRENHEIT  
WCI - WIND CHILL INDEX IN FAHRENHEIT  
N/A - NOT AVAILABLE  
AFB - AIR FORCE BASE  
DAVIS-MONTHAN IS DAVIS-MONTHAN AIR FORCE BASE  
CYN - CANYON  
MTNS - MOUNTAINS  
NCA - NATIONAL CONSERVATION AREA  
NR - NEAR  
VLY - VALLEY  
CONTL - CONTINENTAL  
PIMA CO DEQ - PIMA COUNTY DEPT OF ENVIRONMENTAL QUALITY  
 
CLICK HERE TO GO TO PREVIOUS BULLETINS.

The Nexlab AZ Page Main Text Page